Home > Weather > Klaksvík > Past weeks

Flag for Faroe Islands Past Weather in Klaksvík, Faroe Islands, Faroe Islands — Yesterday and Last 2 Weeks

Now
51 °F

Low clouds.


Feels Like: 49 °F
Forecast: 47 / 56 °F
Wind: 7 mph from East

Location: Thorshavn

Current Time: Aug 26, 2016 at 4:32:54 AM

Latest Report: Aug 26, 2016 at 3:00 AM


Visibility: 6 mi

Pressure: 29.96 "Hg

Humidity: 100%

Dew Point: 51 °F

Location of KlaksvíkLocation

Past Weather in Klaksvík — Graph

°F

Klaksvík Temperature Yesterday

Maximum temperature yesterday: 58 °F (at 3:00 PM)
Minimum temperature yesterday: 51 °F (at 7:00 PM)
Average temperature yesterday: 53 °F

High & Low Weather Summary for the Past Weeks

 TemperatureHumidityPressure
High59 °F (Aug 12, 11:00 AM)100% (Aug 11, 6:00 AM)30.17 "Hg (Aug 11, 6:00 AM)
Low49 °F (Aug 17, 5:00 AM)80% (Aug 14, 4:00 PM)29.53 "Hg (Aug 12, 6:00 AM)
Average52 °F96%29.93 "Hg
* Reported Aug 11 3:00 AM — Aug 26 3:00 AM, Klaksvík, Weather by CustomWeather, © 2016

Note: Actual official high and low records may vary slightly from our data, if they occured in-between our weather recording intervals... More about our weather records

Advertising

Klaksvík Weather History for the Previous 24 Hours

Scroll right to see more
 ConditionsComfort  
Time TempWeatherWind HumidityBarometerVisibility
3:00 AM
Fri, Aug 26
51 °FLow clouds.7 mph100%29.96 "Hg6 mi
2:00 AM52 °FLow clouds.7 mph98%29.98 "Hg9 mi
1:00 AM52 °FFog.7 mph100%29.99 "Hg6 mi
12:00 AM52 °FLow clouds.8 mph98%30.00 "Hg8 mi
11:00 PM
Thu, Aug 25
51 °FLow clouds.7 mph99%30.00 "Hg7 mi
10:00 PM52 °FLow clouds.6 mph99%30.02 "Hg9 mi
9:00 PM52 °FLow clouds.6 mph100%30.02 "Hg9 mi
8:00 PM52 °FFog.8 mph100%30.02 "Hg2 mi
7:00 PM51 °FDense fog.8 mph100%30.02 "Hg0 mi
6:00 PM51 °FDense fog.13 mph100%30.02 "Hg0 mi
5:00 PM52 °FDense fog.15 mph99%30.03 "Hg0 mi
4:00 PM54 °FOvercast.9 mph92%30.03 "Hg11 mi
3:00 PM58 °FPartly sunny.8 mph81%30.03 "Hg17 mi
2:00 PM57 °FOvercast.5 mph85%30.05 "Hg15 mi
1:00 PM55 °FOvercast.6 mph90%30.06 "Hg12 mi
11:00 AM57 °FOvercast.5 mph83%30.06 "Hg13 mi
10:00 AM53 °FFog.6 mph97%30.06 "Hg5 mi
9:00 AM53 °FFog.6 mph98%30.05 "Hg5 mi
8:00 AM52 °FLow clouds.6 mph98%30.05 "Hg7 mi
7:00 AM53 °FRain showers. Low clouds.5 mph99%30.05 "Hg6 mi
6:00 AM53 °FRain showers. Low clouds.2 mph97%30.05 "Hg6 mi
5:00 AM52 °FOvercast.6 mph100%30.06 "Hg7 mi
4:00 AM52 °FFog.7 mph99%30.06 "Hg4 mi
Weather by CustomWeather, © 2016

See weather overviewHow to use our weather pages